Sunday, August 31, 2014
10:22 UTC
  |  Log In   |  Register Free
Airport Search:

Clinton-Sampson County Airport
(KCTZ)

Clinton-Sampson County Airport Diagram
No Airport Diagram Available

FAA data valid effective July 24, 2014 until September 18, 2014 (unless otherwise noted).

 
 
 
 
 
 
 
 
 
 
 
 
 
 

Current Aviation Weather for Clinton-Sampson County Airport (KCTZ)

The most recent METAR observation for KCTZ was updated at: 0954 UTC
METAR Summary (Translated METAR)
KCTZ
310954Z AUTO 00000KT 10SM CLR 21/21 A3017 RMK AO2
KDPL
(18.9 nm NE from KCTZ)
310955Z AUTO 00000KT 10SM CLR 20/19 A3018 RMK AO2 T01950188
TAF
No TAF information found within 50 nm of KCTZ
  Airport Weather Conditions for KCTZ

 Current Weather at CTZ
72° F
Fair
North winds at 0.0 mph
CTZ NOAA Radar

Pressure: 30.17 in
Humidity: 100%
Wind: Calm
Dew Point: 71.6°F
Visibility: 10.00 mi


Airport Weather Forecast for KCTZ

Translated METAR and TAF for KCTZ
Translated METAR for KCTZ (1015 UTC 31 August 2014)
found at http://aviationweather.gov/adds/metars/
 
METAR text: KCTZ 310954Z AUTO 00000KT 10SM CLR 21/21 A3017 RMK AO2
Conditions at: KCTZ (CLINTON , NC, US) observed 0954 UTC 31 August 2014
Temperature: 21.0°C (70°F)
Dewpoint: 21.0°C (70°F) [RH = 100%]
Pressure (altimeter): 30.17 inches Hg (1021.8 mb)
Winds: calm
Visibility: 10 or more miles (16+ km)
Ceiling: at least 12,000 feet AGL
Clouds: sky clear below 12,000 feet AGL
Weather: automated observation with no human augmentation;
there may or may not be significant weather present at this time
Translated TAF for KCTZ

There is no translated TAF available for this airport

Find All Airport Services Find A Hotel Find A Rental Car Find A Golf Course Find A Restaurant $100 Hamburger



FBO's on the Field
FBO Company Facility Photos Services Transportation Aviation Fuel Prices: Prices include tax
Catering Weather Repair Courtesy Rental Type 100LL JetA JetA+ MOGAS 8087
 
Clinton Flying Service

This FBO has not yet been rated
FS:Shell
Last Updated: Aug-25
Login to update fuel prices
SS:
Contact Clinton Flying ServiceMore FBO Information
 
Add another FBO Facility Photos Catering Weather Repair Courtesy Rental Type 100LL JetA JetA+ MOGAS 8087
Services Transportation Aviation Fuel Prices: Prices include tax


GlobalAir.com Airport Resource Center model-print
model-print
model-print
model-print